TIANMU-1 16
Last updated on Mon Jun 22 2026 00:02:46 GMT+0000 (Coordinated Universal Time)
1 58701U 24004B 26172.54456803 .00004530 00000+0 17484-3 0 9992
2 58701 97.4622 357.9677 0005379 352.3663 7.7493 15.26785843136446
Next 0 passes for location: London (51.5072 / 0.1276)
No passes found over London.